Location: Augsburg
(48.3836°N, 10.8929°E)
Time: 22:55:52
(UTC+02:00)

ISS - Visible Passes

Search period start: 25 September 2020 00:00
Search period end: 05 October 2020 00:00
Orbit: 419 x 420 km, 51.6° (Epoch: 26 September)

Date Brightness Start Highest point End Pass type
(mag) Time Alt. Az. Time Alt. Az. Time Alt. Az.
25 Sep -3.1 20:58:22 10° WNW 21:01:38 46° N 21:02:08 42° NNE visible
26 Sep -3.0 20:10:53 10° W 20:14:10 47° N 20:16:31 17° ENE visible
26 Sep -1.4 21:47:56 10° WNW 21:49:28 25° WNW 21:49:28 25° WNW visible
27 Sep -3.3 21:00:30 10° WNW 21:03:49 53° N 21:03:50 53° NNE visible
28 Sep -3.1 20:13:03 10° WNW 20:16:21 48° N 20:18:11 22° ENE visible
28 Sep -1.1 21:49:56 10° WNW 21:51:09 20° WNW 21:51:09 20° WNW visible
29 Sep -3.5 21:02:30 10° WNW 21:05:30 67° NW 21:05:30 67° NW visible
30 Sep -3.6 20:15:04 10° WNW 20:18:26 64° NNE 20:19:53 30° E visible
30 Sep -0.8 21:52:02 10° W 21:52:51 15° W 21:52:51 15° W visible
01 Oct -3.3 19:27:37 10° WNW 19:30:57 53° N 19:34:16 10° E visible
01 Oct -2.8 21:04:30 10° WNW 21:07:15 45° WSW 21:07:15 45° WSW visible
02 Oct -3.7 20:17:00 10° WNW 20:20:22 73° SSW 20:21:42 34° SE visible
03 Oct -3.8 19:29:32 10° WNW 19:32:55 83° NNE 19:36:12 11° ESE visible
03 Oct -1.7 21:06:43 10° W 21:09:10 23° SW 21:09:10 23° SW visible
04 Oct -2.4 20:19:01 10° W 20:22:07 34° SW 20:23:45 21° SSE visible
